Wind_Speed
64 73 79 83 87 88 88 88 87 86 83 79 75 74 74 73 73 73 73 71 69 67 66 64 62 61 61 61 60 58 56 54 53 53 52 51 50 49
45 53 61 69 76 83 87 88 89 88 87 84 80 76 75 74 73 73 73 73 73 72 69 68 66 64 64 63 62 61 59 58 56 56 56 55 54 53
37 40 46 52 60 69 77 83 87 88 88 87 85 80 78 77 75 73 72 71 72 72 71 70 69 68 68 67 65 63 62 61 60 59 58 58 57 55
36 37 39 43 47 54 63 71 78 82 86 86 86 84 81 79 78 77 75 73 71 70 70 69 69 68 67 67 67 67 66 65 64 63 62 61 60 59
38 38 38 40 43 46 51 58 66 72 77 81 82 83 82 79 77 76 76 76 74 72 70 69 69 69 69 70 69 68 67 67 66 65 64 63 63 62
40 40 39 40 41 44 48 52 57 62 67 70 73 76 78 77 76 74 74 76 75 74 72 70 70 69 70 71 70 70 70 69 68 67 65 64 64 63
41 40 39 38 38 38 41 46 50 55 58 61 64 67 70 71 72 70 71 73 74 74 73 72 70 69 70 71 72 74 74 74 72 71 69 67 67 67
41 40 37 36 34 33 35 41 48 51 53 56 60 63 65 66 67 68 68 70 72 73 73 72 72 72 71 71 72 73 75 75 74 74 74 73 74 73
41 40 37 35 32 32 34 38 48 50 51 55 56 59 62 64 64 65 66 67 68 68 69 71 72 73 74 75 76 76 76 76 77 78 78 77 77 78
43 41 39 37 35 36 37 39 47 50 52 55 55 58 60 61 63 64 64 63 64 66 68 69 71 72 74 76 77 76 76 77 78 78 79 79 78 79
46 44 43 41 41 41 39 41 46 50 52 55 55 54 54 55 57 58 59 59 59 60 63 65 67 68 71 73 74 75 76 76 76 77 76 76 76 77
48 48 47 46 46 45 43 42 43 46 50 51 52 51 50 50 50 52 52 52 52 53 55 57 58 60 61 64 66 68 69 70 71 71 72 72 73 74
50 50 50 50 50 50 47 45 43 43 45 47 49 50 50 50 50 50 50 50 50 51 51 53 54 55 56 57 58 59 60 62 64 66 67 68 69 70
49 51 51 51 52 53 51 48 46 44 43 43 45 47 49 51 52 52 52 51 51 52 53 54 55 56 56 56 56 56 55 56 57 58 59 61 62 63
49 51 51 52 52 53 53 52 50 47 46 45 45 46 48 50 51 52 52 52 51 52 53 55 57 57 58 58 58 58 57 57 56 55 55 55 56 57
45 49 50 51 51 52 53 53 52 51 50 49 48 48 48 49 50 51 52 52 52 52 52 53 55 57 58 59 59 59 58 57 56 56 55 55 55 54
40 46 48 50 50 51 51 51 52 52 53 52 52 52 51 51 51 51 51 51 52 52 51 51 52 54 56 57 57 57 56 55 55 55 54 54 53 53
32 40 46 49 50 51 51 50 50 50 52 55 55 55 55 54 53 53 52 51 51 51 50 48 48 49 51 53 53 52 51 51 51 52 53 53 53 52
23 32 40 47 49 51 51 51 49 49 50 53 56 57 57 57 56 56 55 54 53 52 50 48 47 47 49 50 49 48 48 48 49 50 51 52 52 52
16 22 31 40 47 50 51 52 51 50 49 49 52 55 58 58 58 58 57 56 55 54 52 49 48 47 47 47 47 46 46 46 46 47 49 49 50 50
12 15 21 30 39 47 50 52 53 52 50 49 48 50 53 54 55 57 57 56 55 54 52 50 48 47 46 46 45 44 44 43 44 44 45 45 46 46
11 13 16 21 29 39 47 51 52 53 53 51 49 48 49 50 51 52 53 53 53 52 50 49 48 47 46 45 44 43 42 41 41 41 41 41 42 42
9 10 13 16 21 28 38 46 51 53 54 53 52 50 49 49 49 49 50 50 50 50 49 48 47 46 45 44 43 42 41 40 39 39 38 38 38 39
Wind_Direction
238 239 240 241 241 242 243 243 243 241 238 236 235 236 236 236 237 238 238 238 237 237 237 237 237 238 239 241 242 242 243 243 243 243 245 245 245 248
233 236 239 240 242 243 243 244 244 244 242 239 237 236 236 236 236 237 237 237 237 237 237 237 238 239 240 241 242 242 242 242 243 244 244 243 245 247
230 232 235 238 240 242 242 243 243 243 243 242 240 237 237 236 236 236 236 236 237 236 236 237 238 239 240 241 242 242 242 242 242 242 243 244 245 246
233 233 235 236 238 239 240 240 240 240 241 241 240 239 238 237 236 236 235 235 235 235 234 234 234 235 236 238 239 240 241 242 242 243 244 245 246 246
236 237 239 240 240 240 240 238 236 235 236 236 237 237 237 237 236 235 235 235 235 234 234 234 234 233 234 235 237 239 240 242 243 244 245 246 247 247
237 240 242 244 245 246 243 237 231 229 229 229 230 231 232 232 232 232 233 233 233 234 234 235 235 235 235 236 236 237 238 240 242 244 244 245 246 247
236 239 242 246 248 248 241 232 225 221 219 220 223 225 227 228 228 228 230 232 232 232 233 234 235 236 236 236 236 237 238 240 241 242 243 243 244 246
233 234 238 242 245 241 231 222 215 211 211 214 217 219 222 222 223 224 226 228 230 231 232 233 232 232 233 234 235 237 238 239 241 242 244 245 247 248
227 228 231 233 233 226 218 211 209 209 209 211 213 215 218 220 222 223 224 226 228 230 231 232 232 232 232 231 232 235 237 239 240 242 244 246 248 250
223 223 224 224 221 216 211 207 205 205 206 205 206 209 215 220 222 223 225 226 228 229 229 230 232 233 234 235 236 237 238 240 241 243 244 246 248 250
220 219 219 219 216 213 212 209 206 205 205 203 204 207 212 216 219 221 222 224 226 227 229 231 233 234 235 237 238 239 241 242 244 245 246 248 249 251
218 218 218 218 216 216 215 213 211 210 210 209 209 210 212 213 214 215 217 219 220 223 225 229 231 234 236 237 238 239 241 242 244 245 247 248 250 252
218 218 217 218 217 217 217 217 216 214 213 212 212 213 212 212 212 212 213 216 218 220 222 226 229 232 235 237 239 240 242 244 245 246 247 249 251 253
220 218 218 218 218 219 220 219 220 220 217 214 213 213 213 213 213 214 215 217 219 222 224 227 231 233 235 236 237 239 241 243 245 247 248 250 251 252
221 220 219 219 219 220 221 221 221 221 221 219 217 216 215 214 214 216 217 219 222 226 229 231 233 235 236 237 238 240 242 244 246 246 247 247 247 248
222 221 221 220 220 221 221 221 222 221 221 221 221 220 219 218 218 218 219 222 225 228 231 234 236 236 236 236 237 238 241 242 244 244 244 245 246 248
226 222 222 221 221 221 222 222 222 222 221 221 221 221 221 222 222 222 224 225 228 230 232 234 236 236 235 235 235 237 239 240 241 242 244 246 247 249
231 226 223 222 222 222 222 222 223 223 222 222 221 221 222 223 223 224 226 228 230 232 233 234 235 235 234 234 234 236 237 238 240 242 244 246 248 249
239 232 226 223 222 222 222 222 223 223 223 223 222 222 222 222 224 225 227 230 231 232 233 234 234 235 234 233 234 235 238 240 243 244 245 246 248 249
249 240 232 227 223 222 223 223 223 223 223 223 223 223 223 223 225 225 227 229 230 232 233 234 234 234 234 234 235 238 241 244 246 247 247 247 247 247
262 250 240 232 227 224 223 223 223 223 223 223 223 223 223 224 225 225 226 227 228 229 230 232 233 233 233 234 236 239 243 246 248 248 247 246 244 245
275 261 248 238 231 226 224 223 223 223 224 224 224 223 223 223 224 224 224 224 224 225 226 229 230 231 231 233 236 240 244 247 247 246 244 242 240 241
309 278 259 245 235 229 225 223 223 223 224 224 225 224 224 223 223 222 222 222 222 223 224 225 227 229 230 232 236 239 243 245 245 243 240 238 238 237
Height
5468 5478 5489 5499 5509 5519 5529 5538 5549 5560 5574 5586 5596 5605 5614 5623 5632 5640 5649 5659 5667 5675 5683 5691 5698 5705 5710 5715 5720 5725 5731 5736 5741 5746 5750 5754 5759 5763
5454 5462 5470 5479 5488 5498 5507 5517 5528 5540 5553 5566 5577 5589 5597 5606 5615 5623 5633 5642 5650 5659 5668 5676 5684 5691 5696 5701 5706 5711 5717 5722 5728 5733 5738 5742 5747 5752
5443 5449 5456 5462 5470 5478 5486 5496 5507 5519 5532 5545 5557 5570 5579 5589 5599 5607 5616 5624 5633 5642 5652 5660 5668 5675 5681 5686 5691 5696 5702 5708 5714 5719 5724 5730 5735 5740
5433 5438 5444 5450 5455 5461 5468 5476 5487 5498 5511 5524 5536 5549 5560 5572 5581 5590 5599 5607 5616 5625 5634 5643 5651 5658 5665 5671 5676 5682 5688 5694 5700 5706 5711 5717 5722 5726
5422 5427 5432 5437 5442 5447 5452 5459 5468 5479 5490 5503 5516 5529 5541 5553 5562 5572 5580 5590 5600 5609 5618 5627 5635 5643 5649 5656 5662 5668 5674 5681 5686 5691 5696 5701 5707 5712
5411 5416 5420 5424 5428 5432 5437 5443 5451 5461 5473 5485 5497 5509 5521 5533 5544 5553 5562 5572 5583 5593 5603 5611 5619 5627 5635 5643 5651 5655 5660 5665 5671 5676 5682 5687 5691 5696
5398 5403 5407 5411 5414 5417 5421 5428 5437 5448 5459 5470 5481 5493 5503 5515 5527 5536 5545 5555 5566 5576 5586 5597 5607 5614 5619 5626 5632 5638 5644 5650 5656 5662 5667 5672 5677 5681
5386 5391 5395 5399 5403 5406 5410 5417 5426 5437 5447 5457 5467 5478 5487 5499 5511 5521 5529 5539 5551 5564 5571 5579 5588 5595 5602 5609 5616 5622 5628 5634 5641 5646 5651 5656 5661 5665
5373 5379 5384 5389 5393 5397 5402 5408 5417 5426 5436 5445 5454 5463 5473 5485 5497 5507 5514 5522 5534 5545 5554 5562 5569 5577 5585 5592 5598 5605 5612 5618 5624 5630 5635 5640 5645 5649
5361 5367 5373 5378 5383 5388 5394 5400 5407 5416 5425 5434 5442 5451 5460 5470 5481 5491 5501 5510 5520 5527 5536 5544 5552 5560 5569 5575 5582 5589 5595 5602 5608 5613 5619 5624 5628 5633
5348 5355 5362 5368 5374 5380 5386 5392 5398 5406 5414 5423 5432 5441 5450 5460 5469 5478 5487 5496 5504 5513 5521 5530 5537 5545 5552 5559 5566 5573 5580 5586 5591 5597 5602 5607 5612 5616
5335 5342 5350 5357 5364 5370 5377 5384 5390 5397 5405 5413 5422 5431 5441 5450 5459 5467 5476 5485 5493 5501 5509 5517 5524 5531 5537 5544 5551 5558 5565 5570 5575 5581 5587 5592 5596 5601
5321 5329 5337 5345 5353 5360 5368 5375 5382 5389 5396 5404 5413 5422 5431 5440 5448 5456 5465 5474 5482 5490 5498 5505 5512 5519 5525 5532 5538 5545 5550 5556 5561 5567 5573 5578 5582 5586
5308 5316 5325 5333 5341 5349 5357 5365 5373 5381 5389 5396 5404 5413 5422 5430 5438 5446 5454 5463 5471 5479 5487 5494 5500 5507 5513 5519 5526 5531 5537 5542 5548 5554 5559 5564 5568 5571
5296 5305 5314 5322 5330 5338 5346 5354 5363 5371 5379 5387 5395 5403 5412 5420 5428 5436 5444 5452 5460 5467 5475 5482 5488 5494 5500 5507 5513 5519 5524 5530 5535 5541 5546 5550 5554 5557
5286 5294 5302 5311 5319 5327 5335 5343 5352 5360 5369 5377 5385 5394 5402 5410 5418 5426 5434 5442 5449 5456 5462 5469 5475 5481 5487 5494 5500 5506 5512 5517 5523 5528 5533 5537 5541 5544
5276 5283 5291 5300 5308 5316 5324 5332 5340 5349 5357 5366 5374 5383 5391 5399 5407 5415 5422 5430 5437 5444 5450 5456 5462 5468 5474 5481 5487 5493 5499 5505 5511 5516 5520 5524 5528 5531
5267 5273 5281 5288 5297 5305 5313 5321 5329 5337 5345 5354 5362 5370 5379 5387 5395 5403 5410 5418 5425 5432 5438 5444 5450 5456 5463 5469 5476 5482 5488 5494 5499 5503 5507 5511 5515 5518
5261 5265 5271 5278 5286 5294 5302 5310 5318 5326 5334 5342 5350 5358 5366 5374 5382 5390 5398 5406 5413 5420 5427 5433 5439 5446 5452 5459 5465 5471 5477 5482 5487 5491 5494 5498 5501 5505
5256 5258 5262 5268 5275 5283 5291 5300 5308 5316 5323 5330 5338 5346 5354 5362 5370 5378 5385 5393 5401 5408 5415 5422 5428 5435 5442 5448 5455 5461 5466 5470 5474 5477 5481 5484 5488 5491
5252 5253 5255 5259 5265 5272 5280 5288 5297 5305 5312 5320 5327 5334 5342 5349 5357 5365 5373 5380 5388 5396 5404 5411 5417 5424 5431 5438 5444 5450 5455 5458 5461 5464 5468 5472 5476 5479
5248 5248 5249 5252 5256 5261 5269 5277 5285 5293 5301 5309 5316 5324 5331 5338 5346 5353 5361 5369 5377 5384 5392 5399 5406 5413 5420 5427 5433 5439 5444 5447 5450 5453 5456 5461 5464 5468
5245 5244 5245 5246 5248 5252 5258 5265 5273 5281 5290 5298 5306 5313 5320 5328 5335 5343 5350 5358 5366 5374 5381 5388 5396 5403 5410 5417 5423 5428 5433 5437 5440 5443 5447 5451 5454 5458